Flag for Denmark Weather past 2 weeks in Copenhagen, Denmark

Now
64 °F

Passing clouds.


Feels Like: 64 °F
Forecast: 56 / 73 °F
Wind: 7 mph from Southwest

Location: Koebenhavn-Kastrup Airport

Current Time: Aug 5, 2015 at 4:58:22 AM

Latest Report: Aug 5, 2015 at 4:20 AM


Visibility: 5 mi

Pressure: 29.95 "Hg

Humidity: 94%

Dew point: 63 °F

Location of CopenhagenLocation

Historic Weather in Copenhagen — Graph

°F

Copenhagen temperature yesterday

Maximum temperature yesterday: 79 °F (at 12:50 PM)
Minimum temperature yesterday: 59 °F (at 4:50 AM)
Average temperature yesterday: 69 °F

Past Weeks' High & Low Weather Summary

 TemperatureHumidityPressure
High79 °F (Aug 4, 12:50 PM)100% (Jul 21, 8:20 AM)30.15 "Hg (Jul 21, 8:20 AM)
Low46 °F (Aug 1, 4:20 AM)43% (Jul 23, 5:50 PM)29.39 "Hg (Jul 28, 5:20 AM)
Average62 °F74%29.80 "Hg
* Reported Jul 21 3:20 AM — Aug 5 3:20 AM, Copenhagen, Weather by CustomWeather, © 2015

Note: Actual official high and low records may vary slightly from our data, if they occured in-between our weather recording intervals... More about our weather records

Advertising

Copenhagen weather history for previous 24 hours

 ConditionsComfort  
Time TempWeatherWind HumidityBarometerVisibility
3:20 AM
Wed, Aug 5
64 °FPassing clouds.3 mph94%29.95 "Hg5 mi
2:50 AM64 °FPassing clouds.2 mph94%29.95 "Hg5 mi
2:20 AM64 °FPassing clouds.6 mph94%29.92 "Hg5 mi
1:50 AM64 °FPassing clouds.3 mph100%29.92 "Hg5 mi
1:20 AM64 °FSprinkles. Passing clouds.1 mph94%29.92 "HgN/A
12:50 AM64 °FSprinkles. Passing clouds.8 mph94%29.92 "Hg4 mi
12:20 AM64 °FSprinkles. Passing clouds.7 mph94%29.92 "Hg4 mi
11:50 PM
Tue, Aug 4
66 °FSprinkles. Passing clouds.9 mph88%29.92 "Hg5 mi
11:20 PM66 °FPassing clouds.10 mph94%29.92 "HgN/A
10:50 PM68 °FRain showers. Partly cloudy.7 mph83%29.95 "Hg4 mi
10:20 PM64 °FSprinkles. Partly cloudy.7 mph94%29.92 "Hg5 mi
9:50 PM66 °FRain showers. Broken clouds.2 mph88%29.89 "Hg5 mi
9:20 PM64 °FThunderstorms. Broken clouds.3 mph94%29.92 "Hg4 mi
8:50 PM68 °FThunderstorms. Broken clouds.6 mph78%29.89 "Hg4 mi
8:20 PM70 °FPassing clouds.10 mph73%29.83 "HgN/A
7:50 PM73 °FSunny.12 mph61%29.83 "Hg10 mi
7:20 PM75 °FSunny.15 mph57%29.86 "Hg10 mi
6:50 PM75 °FSunny.13 mph57%29.86 "Hg10 mi
6:20 PM75 °FSunny.13 mph57%29.86 "Hg10 mi
5:50 PM77 °FSunny.14 mph54%29.86 "Hg10 mi
5:20 PM79 °FSunny.14 mph51%29.89 "Hg10 mi
4:50 PM79 °FSunny.13 mph51%29.89 "Hg10 mi
4:20 PM77 °FSunny.10 mph54%29.89 "Hg10 mi
3:50 PM79 °FSunny.12 mph48%29.89 "Hg10 mi
3:20 PM77 °FSunny.13 mph51%29.89 "Hg10 mi
2:50 PM79 °FSunny.14 mph48%29.89 "Hg10 mi
2:20 PM79 °FSunny.13 mph48%29.92 "Hg10 mi
1:50 PM79 °FSunny.14 mph51%29.92 "Hg10 mi
1:20 PM79 °FSunny.12 mph48%29.92 "Hg10 mi
12:50 PM79 °FSunny.14 mph48%29.95 "Hg10 mi
12:20 PM77 °FSunny.15 mph51%29.95 "Hg10 mi
11:50 AM73 °FSunny.14 mph61%29.95 "Hg10 mi
11:20 AM73 °FSunny.16 mph61%29.98 "Hg10 mi
10:50 AM73 °FSunny.15 mph61%29.98 "Hg10 mi
10:20 AM72 °FPassing clouds.7 mph65%29.98 "HgN/A
9:50 AM70 °FPassing clouds.6 mph64%29.98 "HgN/A
9:20 AM68 °FSunny.8 mph73%30.01 "Hg10 mi
8:50 AM68 °FSunny.10 mph73%29.98 "Hg10 mi
8:20 AM66 °FPassing clouds.8 mph73%30.01 "HgN/A
7:50 AM66 °FSunny.7 mph73%30.01 "Hg10 mi
7:20 AM66 °FSunny.6 mph73%30.01 "Hg10 mi
6:50 AM64 °FSunny.6 mph78%30.01 "Hg10 mi
6:20 AM63 °FSunny.6 mph83%30.01 "Hg10 mi
5:50 AM61 °FClear.2 mph88%30.01 "Hg10 mi
5:20 AM61 °FClear.5 mph88%30.04 "Hg10 mi
4:50 AM59 °FClear.5 mph88%30.04 "Hg10 mi
4:20 AM61 °FClear.5 mph83%30.04 "Hg10 mi
Weather by CustomWeather, © 2015

See weather overviewHow to use our weather pages